Litchfield, IL

3:13 AM CDT on August 22, 2017 (GMT -0500)
Litchfield

Weather History for K3LF - November, 2012

Change the Weather History Date:

Thursday, November 1, 2012

  Actual Average (KALN) Record (KALN)
Temperature  
Mean Temperature 46 °F -  
Max Temperature 57 °F 59 °F 82 °F (2000)
Min Temperature 34 °F 42 °F 28 °F (2006)
Degree Days  
Heating Degree Days 20    
Moisture  
Dew Point 32 °F    
Average Humidity 58    
Maximum Humidity 76    
Minimum Humidity 36    
Precipitation  
Precipitation 0.00 in - - ()
Sea Level Pressure  
Sea Level Pressure 29.94 in    
Wind  
Wind Speed 7 mph (WSW)    
Max Wind Speed 9 mph    
Max Gust Speed -    
Visibility 10 miles    
Events      
Averages and records for this station are not official NWS values.
T = Trace of Precipitation, MM = Missing Value Source: NWS Daily Summary

Daily Weather History Graph

Daily Weather History Graph

Search for Another Location

Airport or City:

Trip Planner

Search our weather history database for the weather conditions in past years. The results will help you decide how hot, cold, wet, or windy it might be!

Date:

Astronomy

Nov. 01, 2012 Rise Set
Actual Time 7:26 AM CDT 5:57 PM CDT
Civil Twilight 6:59 AM CDT 6:24 PM CDT
Nautical Twilight 6:27 AM CDT 6:56 PM CDT
Astronomical Twilight 5:56 AM CDT 7:27 PM CDT
Moon 7:55 PM CDT (11/1) 9:58 AM CDT (11/1)
Length of Visible Light 11h 25m
Length of Day
10h 30m
Waning Gibbous, 93% of the Moon is Illuminated
Nov 1
Waning Gibbous
Nov 6
Last Quarter
Nov 13
New
Nov 20
First Quarter
Nov 28
Full

Hourly Weather History & Observations

Time (CDT) Temp. Windchill Dew Point Humidity Pressure Visibility Wind Dir Wind Speed Gust Speed Precip Events Conditions
12:15 AM 38.5 °F 32.7 °F 24.8 °F 58% 29.96 in 10.0 mi WNW 8.1 mph - N/A   Clear
12:35 AM 37.8 °F 31.8 °F 25.2 °F 60% 29.95 in 10.0 mi WNW 8.1 mph - N/A   Clear
12:55 AM 39.4 °F 33.8 °F 23.7 °F 54% 29.95 in 10.0 mi WNW 8.1 mph - N/A   Clear
1:15 AM 37.9 °F 32.7 °F 23.9 °F 57% 29.96 in 10.0 mi WNW 6.9 mph - N/A   Clear
1:35 AM 37.0 °F 31.6 °F 24.4 °F 60% 29.96 in 10.0 mi WNW 6.9 mph - N/A   Clear
1:55 AM 36.3 °F 30.1 °F 24.8 °F 63% 29.96 in 10.0 mi WNW 8.1 mph - N/A   Clear
2:15 AM 35.6 °F 29.2 °F 25.2 °F 66% 29.96 in 10.0 mi WNW 8.1 mph - N/A   Clear
2:35 AM 36.3 °F 29.5 °F 25.2 °F 64% 29.96 in 10.0 mi WNW 9.2 mph - N/A   Clear
2:55 AM 37.4 °F 31.4 °F 24.6 °F 60% 29.97 in 10.0 mi WNW 8.1 mph - N/A   Clear
3:15 AM 35.6 °F 28.6 °F 25.7 °F 67% 29.97 in 10.0 mi WNW 9.2 mph - N/A   Clear
3:35 AM 35.1 °F 27.9 °F 25.7 °F 69% 29.97 in 10.0 mi WNW 9.2 mph - N/A   Clear
3:55 AM 34.7 °F 28.1 °F 25.5 °F 69% 29.96 in 10.0 mi WNW 8.1 mph - N/A   Clear
4:15 AM 34.7 °F 28.1 °F 25.7 °F 70% 29.97 in 10.0 mi WNW 8.1 mph - N/A   Clear
4:35 AM 35.8 °F 30.9 °F 25.2 °F 65% 29.97 in 10.0 mi WNW 5.8 mph - N/A   Clear
5:15 AM 35.6 °F 31.7 °F 24.6 °F 64% 29.97 in 10.0 mi NW 4.6 mph - N/A   Clear
5:35 AM 36.3 °F 32.5 °F 25.0 °F 63% 29.96 in 10.0 mi WNW 4.6 mph - N/A   Clear
5:55 AM 35.4 °F 31.5 °F 25.2 °F 66% 29.96 in 10.0 mi WNW 4.6 mph - N/A   Scattered Clouds
6:35 AM 34.7 °F 28.1 °F 26.4 °F 72% 29.97 in 10.0 mi WNW 8.1 mph - N/A   Clear
7:15 AM 36.3 °F 32.5 °F 27.1 °F 69% 29.97 in 10.0 mi West 4.6 mph - N/A   Overcast
7:55 AM 36.1 °F 30.6 °F 27.1 °F 70% 29.98 in 10.0 mi West 6.9 mph - N/A   Scattered Clouds
8:15 AM 37.0 °F 32.4 °F 28.0 °F 70% 29.99 in 10.0 mi West 5.8 mph - N/A   Clear
8:35 AM 39.9 °F 35.8 °F 28.4 °F 63% 29.98 in 10.0 mi West 5.8 mph - N/A   Clear
8:55 AM 41.9 °F 37.5 °F 28.9 °F 60% 29.99 in 10.0 mi West 6.9 mph - N/A   Clear
9:15 AM 43.7 °F 39.1 °F 28.8 °F 56% 29.99 in 10.0 mi West 8.1 mph - N/A   Clear
9:35 AM 45.3 °F 41.6 °F 30.2 °F 56% 29.99 in 10.0 mi West 6.9 mph - N/A   Scattered Clouds
9:55 AM 45.7 °F 42.7 °F 29.3 °F 53% 30.00 in 10.0 mi West 5.8 mph - N/A   Mostly Cloudy
10:15 AM 46.9 °F - 30.0 °F 52% 30.01 in 10.0 mi West 4.6 mph - N/A   Mostly Cloudy
10:35 AM 48.7 °F - 27.7 °F 44% 30.00 in 10.0 mi West 5.8 mph - N/A   Mostly Cloudy
10:55 AM 49.6 °F - 26.6 °F 41% 30.00 in 10.0 mi WSW 3.5 mph - N/A   Mostly Cloudy
11:15 AM 51.1 °F - 28.6 °F 42% 30.00 in 10.0 mi WSW 5.8 mph - N/A   Mostly Cloudy
11:35 AM 52.0 °F - 28.9 °F 41% 30.00 in 10.0 mi West 3.5 mph - N/A   Scattered Clouds
11:55 AM 54.0 °F - 29.8 °F 40% 29.99 in 10.0 mi West 5.8 mph - N/A   Scattered Clouds
12:15 PM 55.4 °F - 28.9 °F 36% 29.98 in 10.0 mi SW 6.9 mph - N/A   Scattered Clouds
12:35 PM 56.1 °F - 30.4 °F 38% 29.97 in 10.0 mi WSW 9.2 mph - N/A   Mostly Cloudy
12:55 PM 57.6 °F - 31.5 °F 37% 29.96 in 10.0 mi West 8.1 mph - N/A   Mostly Cloudy
1:15 PM 57.4 °F - 31.6 °F 38% 29.95 in 10.0 mi WSW 9.2 mph - N/A   Mostly Cloudy
1:35 PM 57.6 °F - 32.4 °F 39% 29.94 in 10.0 mi WSW 9.2 mph - N/A   Overcast
1:55 PM 56.7 °F - 32.2 °F 40% 29.93 in 10.0 mi WSW 8.1 mph - N/A   Mostly Cloudy
2:15 PM 56.8 °F - 32.5 °F 40% 29.93 in 10.0 mi WSW 8.1 mph - N/A   Overcast
2:35 PM 57.2 °F - 32.7 °F 40% 29.92 in 10.0 mi WSW 9.2 mph - N/A   Overcast
2:55 PM 57.2 °F - 32.7 °F 40% 29.91 in 10.0 mi SW 5.8 mph - N/A   Overcast
3:15 PM 57.4 °F - 33.4 °F 40% 29.90 in 10.0 mi SSW 9.2 mph - N/A   Overcast
3:35 PM 57.2 °F - 34.3 °F 42% 29.90 in 10.0 mi SSW 9.2 mph - N/A   Overcast
3:55 PM 57.2 °F - 34.2 °F 42% 29.90 in 10.0 mi SW 6.9 mph - N/A   Overcast
4:15 PM 56.8 °F - 37.0 °F 48% 29.89 in 10.0 mi SSW 6.9 mph - N/A   Overcast
4:35 PM 56.3 °F - 37.9 °F 50% 29.89 in 10.0 mi SW 8.1 mph - N/A   Overcast
4:55 PM 55.8 °F - 39.6 °F 55% 29.88 in 10.0 mi SSW 5.8 mph - N/A   Overcast
5:15 PM 55.0 °F - 39.7 °F 56% 29.88 in 10.0 mi South 6.9 mph - N/A   Overcast
5:35 PM 54.0 °F - 41.0 °F 62% 29.88 in 10.0 mi South 5.8 mph - N/A   Overcast
5:55 PM 52.9 °F - 41.2 °F 64% 29.88 in 10.0 mi South 6.9 mph - N/A   Overcast
6:15 PM 52.3 °F - 40.3 °F 64% 29.88 in 10.0 mi South 5.8 mph - N/A   Overcast
6:35 PM 50.5 °F - 41.2 °F 70% 29.88 in 10.0 mi South 4.6 mph - N/A   Mostly Cloudy
6:55 PM 50.5 °F - 40.6 °F 69% 29.88 in 10.0 mi SSW 5.8 mph - N/A   Mostly Cloudy
7:15 PM 49.5 °F - 40.1 °F 70% 29.88 in 10.0 mi South 4.6 mph - N/A   Mostly Cloudy
7:35 PM 50.7 °F - 38.3 °F 62% 29.88 in 10.0 mi South 3.5 mph - N/A   Scattered Clouds
7:55 PM 48.2 °F - 38.7 °F 70% 29.88 in 10.0 mi South 3.5 mph - N/A   Clear
8:15 PM 47.7 °F - 37.8 °F 69% 29.88 in 10.0 mi South 3.5 mph - N/A   Clear
8:55 PM 47.1 °F - 38.1 °F 71% 29.88 in 10.0 mi SW 3.5 mph - N/A   Mostly Cloudy
9:15 PM 46.4 °F 45.2 °F 39.2 °F 76% 29.88 in 10.0 mi WSW 3.5 mph - N/A   Mostly Cloudy
9:35 PM 47.8 °F - 38.3 °F 70% 29.88 in 10.0 mi WSW 3.5 mph - N/A   Scattered Clouds
9:55 PM 46.6 °F - 37.8 °F 71% 29.88 in 10.0 mi WSW 4.6 mph - N/A   Clear
10:15 PM 46.4 °F 45.2 °F 37.4 °F 71% 29.88 in 10.0 mi WSW 3.5 mph - N/A   Clear
10:35 PM 45.3 °F 44.0 °F 37.4 °F 74% 29.88 in 10.0 mi West 3.5 mph - N/A   Clear
10:55 PM 45.9 °F 42.9 °F 37.2 °F 72% 29.90 in 10.0 mi NW 5.8 mph - N/A   Clear
11:15 PM 44.4 °F 42.0 °F 37.0 °F 75% 29.90 in 10.0 mi NW 4.6 mph - N/A   Clear
11:35 PM 47.5 °F - 37.6 °F 69% 29.90 in 10.0 mi NW 8.1 mph - N/A   Clear
11:55 PM 45.5 °F 40.8 °F 37.8 °F 74% 29.90 in 10.0 mi NNW 9.2 mph - N/A   Clear